This is the latest recevied weather packets stored in our database for station/object C31FR-13. If no packets are shown the sender has not sent any weather packets the latest 10 day(s).
| Time | Temp. | Humidity | Pressure | Rain* | Wind** | Luminosity | Snow |
|---|---|---|---|---|---|---|---|
| 1777791962 | 11.11° C | 96% | 1017.8 hPa | - | - | - | - |
| 1777791663 | 11.11° C | 97% | 1017.9 hPa | - | - | - | - |
| 1777791363 | 11.67° C | 92% | 1017.9 hPa | - | - | - | - |
| 1777790762 | 12.22° C | 94% | 1017.7 hPa | - | - | - | - |
| 1777790162 | 11.67° C | 99% | 1017.6 hPa | - | - | - | - |
| 1777789862 | 11.67° C | 98% | 1017.7 hPa | - | - | - | - |
| 1777789562 | 11.67° C | 96% | 1017.7 hPa | - | - | - | - |
| 1777789262 | 11.67° C | 95% | 1017.8 hPa | - | - | - | - |
| 1777788962 | 11.11° C | 96% | 1017.8 hPa | - | - | - | - |
| 1777788062 | 11.11° C | 99% | 1017.7 hPa | - | - | - | - |
| 1777787763 | 11.11° C | 99% | 1017.7 hPa | - | - | - | - |
| 1777787162 | 11.11° C | 98% | 1017.5 hPa | - | - | - | - |
| 1777786863 | 11.11° C | 99% | 1017.5 hPa | - | - | - | - |
| 1777785963 | 11.11° C | 99% | 1017.3 hPa | - | - | - | - |
| 1777785662 | 11.67° C | 99% | 1017.2 hPa | - | - | - | - |
| 1777785362 | 11.67° C | 99% | 1017.2 hPa | - | - | - | - |
| 1777785062 | 11.67° C | 97% | 1017.2 hPa | - | - | - | - |
| 1777784762 | 11.67° C | 98% | 1017.3 hPa | - | - | - | - |
| 1777784462 | 11.11° C | 96% | 1017.3 hPa | - | - | - | - |
| 1777782362 | 11.11° C | 98% | 1017.3 hPa | - | - | - | - |
| 1777782063 | 11.11° C | 98% | 1017.2 hPa | - | - | - | - |
| 1777781762 | 11.11° C | 97% | 1017.2 hPa | - | - | - | - |
| 1777781462 | 11.67° C | 96% | 1017.1 hPa | - | - | - | - |
| 1777781162 | 11.11° C | 95% | 1017.2 hPa | - | - | - | - |
| 1777779362 | 10.56° C | 98% | 1017.5 hPa | - | - | - | - |
* Rain since midnight (hover to see other rain measurements)
** Current wind speed in m/s (hover to see current wind gust speed)